Regional Weather Roundup
Issued by NWS Wakefield, VA

Home | Current Version | Previous Version | Text Only | Print | Product List | Glossary Off
Versions: 1 2 3 4 5 6 7 8 9 10 11 12 13 14 15 16 17 18 19 20 21 22 23 24 25 26 27 28 29 30 31 32 33 34 35 36 37 38 39 40 41 42 43 44 45 46 47 48 49 50

000
ASUS41 KAKQ 031915
RWRAKQ

REGIONAL WEATHER ROUNDUP
NATIONAL WEATHER SERVICE WAKEFIELD VA
300 PM EDT FRI JUL 03 2015

Note: "fair" indicates few or no clouds below 12,000 feet with no
significant weather and/or obstructions to visibility. * = Denotes
station may not report precipitation (e.g., rain,snow,etc.),
thunder or fog.

VAZ042-051-052>054-056-032000-
NORTHERN VIRGINIA

CITY           SKY/WX    TMP DP  RH WIND       PRES   REMARKS
WASH NATIONAL  CLOUDY    83  66  56 S5        29.97F
DULLES         CLOUDY    78  61  55 VRB5      29.97F
FORT BELVOIR   CLOUDY    80  65  59 SE7       29.96F
QUANTICO       PTSUNNY   80  64  58 CALM      29.97F
FREDERICKSBRG* CLOUDY    83  65  55 S7        29.95F
STAFFORD*      PTSUNNY   79  65  61 S5        30.00F
WARRENTON      CLOUDY    80  67  64 S5        29.97S
CULPEPER*      CLOUDY    77  63  62 S6        29.97F
MANASSAS*      PTSUNNY   81  63  54 SE7         N/A
LEESBURG*      CLOUDY    81  63  54 S13       29.98F
WINCHESTER     CLOUDY    79  64  61 S10       29.97F
FRONT ROYAL*   CLOUDY    77  64  65 S3        29.96F
LURAY*         DRIZZLE   73  66  78 CALM      29.98S
$$

VAZ048-049-060>072-079>083-032000-
CENTRAL AND SOUTH CENTRAL VIRGINIA

CITY           SKY/WX    TMP DP  RH WIND       PRES   REMARKS
RICHMOND       CLOUDY    81  62  52 SE6       29.95F
CHESTERFIELD*  NOT AVBL
PETERSBURG*    CLOUDY    81  71  71 SE3       29.96F
HANOVER        CLOUDY    81  65  58 CALM      29.97F
TAPPAHANNOCK*  CLOUDY    82  57  42 E9        29.97F
QUINTON*       MOCLDY    80  67  63 SE5       29.95F
CHARLOTTSVILLE LGT RAIN  75  66  73 S5        29.97F
GORDONSVILLE*  MOCLDY    75  63  64 CALM      29.97S
ORANGE*        CLOUDY    79  64  61 SE3       29.98F
LOUISA*        CLOUDY    79  64  61 CALM      29.96F
BUMPASS*       MOCLDY    78  66  66 NE3       29.97S
FARMVILLE*     CLOUDY    80  64  58 SE5       29.95F
CREWE*         CLOUDY    79  65  61 SE3       29.95F
FORT PICKETT*  FAIR      81  66  60 SE6       29.95F
CHASE CITY*    FAIR      82  71  69 E7        29.94F
CLARKSVILLE*   CLOUDY    77  70  78 E6        29.94S
SOUTH HILL*    PTSUNNY   79  68  68 CALM      29.99F
LAWRENCEVILLE* NOT AVBL
EMPORIA*         N/A     81  70  69 SE3       29.95F
$$

VAZ088>098-032000-
SOUTHEAST VIRGINIA

CITY           SKY/WX    TMP DP  RH WIND       PRES   REMARKS
NORFOLK        MOSUNNY   80  66  62 NE12      29.95F
VIRGINIA BEACH SUNNY     81  66  60 E10       29.96F
NORFOLK NAVAL  PTSUNNY   81  65  58 E13       29.97F
WEST POINT*    MOSUNNY   84  58  40 SE6       29.97F
SALUDA*        FAIR      78  66  67 E7        29.97S
NEWPORT NEWS   SUNNY     81  66  60 E7        29.96F
LANGLEY AFB    SUNNY     80  67  64 E9        29.95F
FORT EUSTIS    SUNNY     82  66  57 E6        29.94F
WILLIAMSBURG*  SUNNY     88  70  55 SE6       29.97S
HR EXEC AP*    FAIR      84  66  54 S5        29.97F
FRANKLIN*      CLOUDY    81  68  65 E5        29.95F
WAKEFIELD      MOSUNNY   84  66  54 MISG      29.95F
$$

VAZ020-022-025-037-045-032000-
WEST CENTRAL AND SOUTHWEST VIRGINIA

CITY           SKY/WX    TMP DP  RH WIND       PRES   REMARKS
STAUNTON*      CLOUDY    73  65  77 CALM      30.01F
WAYNESBORO*    MOCLDY    72  63  74 SE5       30.00F
HOT SPRINGS VA DRZL/FOG  60  60 100 CALM      30.05F VSB<1/4
LYNCHBURG      CLOUDY    74  62  66 SE8       29.97F
DANVILLE       LGT RAIN  75  71  87 SE3       29.93F
SOUTH BOSTON*  CLOUDY    76  69  78 MISG      29.94S
MARTINSVILLE   CLOUDY    75  75 100 CALM      29.96F
ROANOKE        CLOUDY    68  66  93 N6        29.98F FOG
BLACKSBURG     CLOUDY    69  67  93 NE5       30.02F FOG
DUBLIN*        CLOUDY    72  70  95 CALM      30.00S
MARION*        LGT RAIN  70  67  92 NE5       30.02S
HILLSVILLE*    CLOUDY    68  66  94 CALM      30.00F
RICHLANDS*     RAIN      68  68 100 CALM      29.99F
WISE*          CLOUDY    68  68 100 SW8       29.97F
ABINGDON*      LGT RAIN  70  69  97 CALM      29.98R
$$

MDZ021>025-VAZ099-100-032000-
SOUTHERN MARYLAND AND THE DELMARVA PENINSULA

CITY           SKY/WX    TMP DP  RH WIND       PRES   REMARKS
PATUXENT RIVER MOSUNNY   78  63  59 SE10      29.97F
BAY BRIDGE APT   N/A     79  63  57 S7        29.97F
LEONARDTOWN    MOSUNNY   79  59  50 CALM      29.98F
DOVER          PTSUNNY   77  64  64 E9        29.97F
GEORGETOWN     PTSUNNY   80  62  54 E8        29.98F
EASTON         MOSUNNY   81  64  57 S7        30.01F
CAMBRIDGE      MOSUNNY   79  63  57 S3        29.96F
SALISBURY      PTSUNNY   80  62  54 SE7       29.98S
OCEAN CITY     PTSUNNY   77  65  66 VRB6      29.99S
WALLOPS ISLAND PTSUNNY   79  64  60 E10       29.99S
ACCOMACK*      SUNNY     79  66  65 E8        29.98S
$$

NCZ012>017-030>032-032000-
NORTH CENTRAL AND EASTERN NORTH CAROLINA

CITY           SKY/WX    TMP DP  RH WIND       PRES   REMARKS
ROANOKE RAPIDS MOCLDY    81  70  69 E5        29.93F
RALEIGH        LGT RAIN  74  71  91 SE3       29.94F FOG
ELIZABETH CITY SUNNY     83  70  64 E8        29.95F
AHOSKIE*       MOSUNNY   83  69  64 S6        29.93F
EDENTON*         N/A     83  71  69 SE7       29.95S
CURRITUCK*     PTSUNNY   80  65  60 E6        29.97F
KILL DEVIL HLS SUNNY     84  70  63 E7        29.95F
MANTEO         MOSUNNY   79  71  76 E9        29.96F
CAPE HATTERAS  MOSUNNY   81  70  69 SW7       29.97F
TARBORO*         N/A     84  71  66 S3        29.94F
GOLDSBORO      CLOUDY    80  71  75 VRB5      29.93S
WASHINGTON     MOSUNNY   83  71  66 SW8       29.95S
GREENVILLE     PTSUNNY   82  72  69 SW7       29.96S
NEW BERN       PTSUNNY   87  72  60 S6        29.95F
WILMINGTON     PTSUNNY   85  73  67 VRB5      29.95F
$$

VAZ048-032000-
ELSEWHERE

CITY           SKY/WX    TMP DP  RH WIND       PRES   REMARKS
HARRISBURG PA  PTSUNNY   80  63  55 SE6       29.96F
BALTIMORE      PTSUNNY   79  60  52 S7        29.97F
ANNAPOLIS      PTSUNNY   77  63  61 SE9       29.97F
ANDREWS AFB    CLOUDY    78  71  78 S8        29.96F
PHILADELPHIA   PTSUNNY   81  59  47 S6        29.97F
HENDERSON NC   HVY RAIN  75  71  87 CALM      29.94F
GREENSBORO     CLOUDY    73  70  90 SE7       29.94F
ROCKY MOUNT    CLOUDY    83  72  69 S9        29.94S
$$

VAZ100-032000-
MARINE

STATION/POSITION TIME  TEMP    WIND        PRES    WAVE   SWELL
                       AIR SEA DIR/SP/G            HT/PER HT/PER
                 (UTC) (F)     (DEG/KT/KT) (MB)    (FT/S) (FT/S)
BRANDYWINE LGT   1800   72 74  170/  9/ 10 1016.0F
CAPE MAY NJ      1800   74 76  130/  8/ 11 1015.6F
LEWES DE         1800   76 73  130/  6/  9 1015.5F
15NM E FENWICK I 1850   74 75              1015.5F   3/ 8
OCEAN-CITY-INLET 1800   74 72  100/  4/  6 1015.4F
WACHAPREAGUE VA  1800   76 82   90/  6/ 11 1015.3F
THOMAS POINT MD  1800   75 77  190/  4/  5 1016.1
GOOSES REEF MD   1900   77 78  180/  8/ 10 1015.8F
COVE POINT MD    1800   75     190/  8/ 10 1016.0F
SOLOMONS ISLAND  1800      80                N/A
BISHOPS HEAD MD  1800   77     170/  6/  7 1015.0F
PINEY POINT MD   1800          150/ 10/ 11   N/A
CAMBRIDGE MD     1800   80 79  210/  1/  5 1014.8F
LEWISETTA VA     1800   76 80  100/  8/ 10 1014.9F
RAPPAHANNOCK LGT 1800          110/  6/  7 1015.5F
STINGRAY PT      1900   78 82  120/  4/  8 1015.0S   1
YORK RVR RNG VA  1800   76     140/  6/  7 1014.6F
YORKTOWN VA      1800   76 79   80/  9/ 10 1014.8F
JAMESTOWN VA     1900   80 84  150/  4/  6   N/A
DOMINION TERM VA 1800   77      70/ 10/ 13 1014.8F
KIPTOPEKE VA     1800      81  140/  9/ 12   N/A
CHES BAY BRIDGE  1800   74 73   70/  9/ 10 1014.7F
CAPE HENRY VA    1800   75      90/  6/  9 1013.5F
CHESAPEAKE LGHT  1800   74      90/  6/  7 1016.0F
WILLOUBY STN VA  1800   75      80/  9/ 10 1015.8F
CAPE HENRY BUOY  1828      79                N/A     3/ 8
1ST LANDING BUOY 1900      78              1014.6F   1/ 4
CAPE CHARLES BUO 1826      79                N/A     2/ 8   2/ 8
OFFSHORE WE BUOY 1811      79                N/A     3/ 8   3/ 8
64NM E OF VA BCH 1850   76 78   70/  4/  6 1014.7F   4/ 7   3/ 7
DUCK PIER NC     1800   80 74   90/  6/  6 1014.2F
44100 DUCK FRF   1824      79                N/A     3/ 7
44056 DUCK FRF   1811      77                N/A     2/ 8
OREGON INLET NC  1800   76 74   60/  5/  8 1015.1F
HATTERAS NC      1800   81 78  180/  6/  9 1014.9F
DIAMOND SHLS NC  1850   79 81  240/ 12/ 14 1015.0F   4/ 7   3/ 7
CAPE LOOKOUT NC  1900   81     210/ 12/ 15 1014.4F
$$


USA.gov is the U.S. government's official web portal to all federal, state and local government web resources and services.